Coolangatta Observation History
Time Wind Speed Temp Pressure Rel. Hum Rain
15/09:00pm N 7-9 kts 22.5°c 1012.5 hPa 85% 0.0mm
15/08:30pm N 9-11 kts 22.8°c 1012.3 hPa 84% n/a
15/08:00pm N 11-14 kts 23.2°c 1012.1 hPa 83% n/a
15/07:30pm N 11-16 kts 23.3°c 1011.8 hPa 83% n/a
15/07:00pm N 13-16 kts 23.5°c 1011.4 hPa 82% n/a
15/06:30pm N 16-21 kts 23.8°c 1010.8 hPa 81% n/a
15/06:00pm N 19-23 kts 24.0°c 1010.2 hPa 81% n/a
15/05:30pm N 19-25 kts 24.6°c 1009.6 hPa 79% n/a
15/05:00pm N 18-23 kts 24.8°c 1009.2 hPa 78% n/a
15/04:30pm N 15-20 kts 25.6°c 1009.1 hPa 76% n/a
15/04:00pm N 13-17 kts 25.3°c 1009.1 hPa 76% n/a
15/03:30pm N 15-21 kts 26.1°c 1009.0 hPa 73% n/a
15/03:00pm N 14-18 kts 26.4°c 1009.1 hPa 71% n/a
15/02:30pm N 15-19 kts 26.5°c 1009.3 hPa 71% n/a
15/02:00pm NNE 15-20 kts 26.9°c 1009.8 hPa 69% n/a
15/01:30pm NNE 14-18 kts 26.9°c 1010.1 hPa 70% n/a
15/01:00pm NNE 15-19 kts 26.7°c 1010.5 hPa 69% n/a
15/12:30pm - 0.0 kts 25.9°c 1011.0 hPa 71% n/a
15/12:00pm NNE 15-20 kts 26.7°c 1011.5 hPa 69% 0.0mm
15/11:30am NNE 16-21 kts 25.9°c 1012.0 hPa 68% 0.0mm
15/11:00am NNE 16-21 kts 26.2°c 1012.6 hPa 68% 0.0mm
15/10:30am NNE 15-19 kts 25.7°c 1013.3 hPa 69% 0.0mm
15/10:00am NNE 13-17 kts 25.5°c 1013.7 hPa 68% 0.0mm
15/09:30am NNE 12-16 kts 25.4°c 1014.0 hPa 69% 0.0mm
15/09:00am N 15-18 kts 24.9°c 1014.2 hPa 73% 0.0mm
15/08:30am N 14-16 kts 24.4°c 1014.1 hPa 73% 0.0mm
15/08:00am NNW 10-13 kts 25.4°c 1014.2 hPa 65% 0.0mm
15/07:30am NW 8-11 kts 24.9°c 1014.2 hPa 63% 0.0mm
15/07:00am NNW 8-13 kts 24.1°c 1014.3 hPa 68% 0.0mm
15/06:30am N 7-9 kts 23.0°c 1014.2 hPa 76% 0.0mm
15/06:00am NW 4-6 kts 21.3°c 1014.0 hPa 82% 0.0mm
15/05:30am NW 5-6 kts 20.1°c 1013.7 hPa 87% 0.0mm
15/05:00am NW 5-6 kts 19.3°c 1013.6 hPa 87% 0.0mm
15/04:30am NW 6-8 kts 19.4°c 1013.2 hPa 87% 0.0mm
15/04:00am NW 6-7 kts 18.9°c 1013.1 hPa 89% 0.0mm
15/03:30am NW 4-5 kts 17.7°c 1013.1 hPa 90% 0.0mm
15/03:00am WNW 4-5 kts 18.1°c 1013.0 hPa 88% 0.0mm
15/02:30am WNW 5-6 kts 18.6°c 1013.2 hPa 89% 0.0mm
15/02:00am WNW 4-5 kts 18.3°c 1013.3 hPa 88% 0.0mm
15/01:30am WNW 4-5 kts 18.3°c 1013.5 hPa 87% 0.0mm
15/01:00am W 5 kts 18.7°c 1013.8 hPa 87% 0.0mm
15/12:30am WSW 3-4 kts 18.9°c 1014.2 hPa 89% 0.0mm
15/12:00am WSW 4-5 kts 18.3°c 1014.4 hPa 89% 0.0mm
Time Wind Speed Temp Pressure Rel. Hum Rain
14/11:30pm W 3-4 kts 18.5°c 1014.7 hPa 88% 0.0mm
14/11:00pm W 4-5 kts 18.3°c 1014.9 hPa 85% 0.0mm
14/10:30pm W 3-4 kts 19.6°c 1015.0 hPa 83% 0.0mm
14/10:00pm N 6-7 kts 21.5°c 1015.0 hPa 78% 0.0mm
14/09:30pm NNE 5-6 kts 21.6°c 1014.9 hPa 76% 0.0mm
14/09:00pm NNE 5-7 kts 21.7°c 1014.7 hPa 76% 0.0mm
14/08:30pm NNE 6-7 kts 21.6°c 1014.7 hPa 77% 0.0mm
14/08:00pm NNE 7-8 kts 21.8°c 1014.4 hPa 76% 0.0mm
14/07:30pm NNE 7-8 kts 21.9°c 1014.2 hPa 74% 0.0mm
14/07:00pm NNE 7-9 kts 22.2°c 1014.0 hPa 72% 0.0mm
14/06:30pm NE 7-9 kts 22.1°c 1013.6 hPa 71% 0.0mm
14/06:00pm NE 7-10 kts 22.4°c 1013.3 hPa 68% 0.0mm
14/05:30pm NE 8-11 kts 22.6°c 1012.9 hPa 64% 0.0mm
14/05:00pm ENE 9-11 kts 23.3°c 1012.6 hPa 62% 0.0mm
14/04:30pm ENE 10-13 kts 23.5°c 1012.5 hPa 60% 0.0mm
14/04:00pm NE 10-13 kts 23.6°c 1012.4 hPa 57% 0.0mm
14/03:30pm NE 11-14 kts 24.1°c 1012.3 hPa 55% 0.0mm
14/03:00pm NE 11-13 kts 24.7°c 1012.4 hPa 56% 0.0mm
14/02:30pm NE 10-13 kts 24.4°c 1012.6 hPa 55% 0.0mm
14/02:00pm NE 10-13 kts 25.0°c 1012.9 hPa 56% 0.0mm
14/01:30pm NNE 11-14 kts 25.1°c 1013.0 hPa 53% 0.0mm
14/01:00pm NE 11-14 kts 25.2°c 1013.4 hPa 52% 0.0mm
14/12:30pm NE 12-16 kts 25.4°c 1013.9 hPa 53% 0.0mm
14/12:00pm NE 13-16 kts 24.7°c 1014.2 hPa 52% 0.0mm
14/11:30am NE 13-16 kts 26.0°c 1014.5 hPa 54% 0.0mm
14/11:00am NNE 12-15 kts 25.5°c 1015.0 hPa 53% 0.0mm
14/10:30am NNE 11-14 kts 23.9°c 1015.4 hPa 54% 0.0mm
14/10:00am NNE 10-13 kts 23.7°c 1015.8 hPa 53% 0.0mm
14/09:30am NNE 9-11 kts 24.2°c 1016.0 hPa 52% 0.0mm
14/09:00am NNE 9-11 kts 23.5°c 1016.2 hPa 52% 0.0mm
14/08:30am NNE 7-9 kts 23.2°c 1016.3 hPa 53% 0.0mm
14/08:00am NE 6-8 kts 23.0°c 1016.3 hPa 54% 0.0mm
14/07:30am N 5-8 kts 23.0°c 1016.1 hPa 56% 0.0mm
14/07:00am WSW 2-4 kts 21.9°c 1016.0 hPa 61% 0.0mm
14/06:30am SW 4-6 kts 20.4°c 1015.8 hPa 72% 0.0mm
14/06:00am WSW 7-8 kts 18.8°c 1015.7 hPa 77% 0.0mm
14/05:30am WSW 6-7 kts 18.0°c 1015.4 hPa 82% 0.0mm
14/05:00am SW 5-6 kts 17.7°c 1015.0 hPa 83% 0.0mm
14/04:30am W 3-4 kts 18.1°c 1014.6 hPa 78% 0.0mm
14/04:00am WSW 6-7 kts 19.0°c 1014.5 hPa 78% 0.0mm
14/03:30am E 6-7 kts 20.5°c 1014.3 hPa 70% 0.0mm
14/03:00am CALM 0 kts 19.3°c 1014.2 hPa 73% 0.0mm
14/02:30am SSW 3-4 kts 19.9°c 1014.3 hPa 71% 0.0mm
14/02:00am S 4-5 kts 19.7°c 1014.3 hPa 72% 0.0mm
14/01:30am S 5-6 kts 20.0°c 1014.3 hPa 71% 0.0mm
14/01:00am S 4-6 kts 20.2°c 1014.4 hPa 70% 0.0mm
14/12:30am S 3-5 kts 20.4°c 1014.4 hPa 70% 0.0mm
14/12:00am SSE 5-6 kts 20.7°c 1014.7 hPa 67% 0.0mm
Time Wind Speed Temp Pressure Rel. Hum Rain
13/11:30pm SSE 4-5 kts 20.6°c 1014.8 hPa 67% 0.0mm
13/11:00pm ESE 5-7 kts 21.2°c 1014.9 hPa 63% 0.0mm
13/10:30pm SE 5-7 kts 21.4°c 1014.9 hPa 64% 0.0mm
13/10:00pm SE 6-8 kts 21.4°c 1015.2 hPa 63% 0.0mm
13/09:30pm SE 7-10 kts 21.5°c 1015.1 hPa 63% 0.0mm
13/09:00pm SE 7-11 kts 21.6°c 1014.9 hPa 63% 0.0mm
13/08:30pm SSE 9-12 kts 21.5°c 1014.6 hPa 63% 0.0mm
13/08:00pm SE 7-9 kts 21.6°c 1014.4 hPa 63% 0.0mm
13/07:30pm SE 10-13 kts 21.6°c 1013.9 hPa 62% 0.0mm
13/07:00pm SE 7-14 kts 21.5°c 1013.6 hPa 64% 0.0mm
13/06:30pm SE 9-13 kts 21.6°c 1013.3 hPa 62% 0.0mm
13/06:00pm SE 10-14 kts 21.7°c 1012.9 hPa 62% 0.0mm
13/05:30pm SE 10-13 kts 22.0°c 1012.3 hPa 61% 0.0mm
13/05:00pm SE 12-16 kts 22.2°c 1012.0 hPa 59% 0.0mm
13/04:30pm SE 13-17 kts 22.5°c 1011.5 hPa 59% 0.0mm
13/04:00pm SE 15-19 kts 23.0°c 1011.3 hPa 57% 0.0mm
13/03:30pm SE 16-23 kts 23.6°c 1011.3 hPa 57% 0.0mm
13/03:00pm SSE 12-18 kts 23.2°c 1011.3 hPa 57% 0.0mm
13/02:30pm SSE 17-24 kts 23.3°c 1011.3 hPa 57% 0.0mm
13/02:00pm SSE 17-23 kts 24.7°c 1010.7 hPa 56% 0.0mm
13/01:30pm SSE 17-25 kts 23.6°c 1011.3 hPa 58% 0.0mm
13/01:00pm SSE 17-27 kts 24.7°c 1011.6 hPa 55% 0.0mm
13/12:56pm SSE 17-27 kts 24.7°c 1011.5 hPa 55% 0.0mm
13/12:30pm SSE 17-25 kts 25.7°c 1011.7 hPa 53% 0.0mm
13/12:00pm SE 18-25 kts 26.5°c 1011.8 hPa 52% 0.0mm
13/11:30am SSE 18-24 kts 26.1°c 1011.9 hPa 50% 0.0mm
13/11:00am SSE 18-26 kts 25.7°c 1012.0 hPa 53% 0.0mm
13/10:30am SSE 17-22 kts 26.5°c 1011.8 hPa 51% 0.0mm
13/10:00am SSE 18-25 kts 26.5°c 1012.0 hPa 51% 0.0mm
13/09:30am SE 20-26 kts 26.4°c 1012.0 hPa 55% 0.0mm
13/09:00am SE 19-24 kts 26.0°c 1011.7 hPa 58% 0.0mm
13/08:30am SE 19-26 kts 25.4°c 1011.4 hPa 59% 0.0mm
13/08:00am SSE 14-19 kts 25.0°c 1011.3 hPa 63% 0.0mm
13/07:30am SE 13-18 kts 24.8°c 1011.2 hPa 62% 0.0mm
13/07:00am N 8-10 kts 25.2°c 1010.2 hPa 49% 0.0mm
13/06:30am SE 2-7 kts 24.6°c 1009.8 hPa 52% 0.0mm
13/06:00am NW 7-13 kts 23.6°c 1008.4 hPa 55% 0.0mm
13/05:30am NNW 11-15 kts 22.9°c 1007.8 hPa 57% 0.0mm
13/05:00am NW 14-20 kts 22.7°c 1007.4 hPa 56% 0.0mm
13/04:30am NNW 13-19 kts 22.3°c 1007.1 hPa 62% 0.0mm
13/04:00am NNW 15-19 kts 22.5°c 1006.9 hPa 61% 0.0mm
13/03:30am NNW 16-23 kts 22.3°c 1006.9 hPa 64% 0.0mm
13/03:00am NNW 15-22 kts 22.5°c 1007.0 hPa 65% 0.0mm
13/02:30am NNW 14-21 kts 22.6°c 1007.0 hPa 65% 0.0mm
13/02:00am NNW 15-20 kts 22.8°c 1007.2 hPa 63% 0.0mm
13/01:30am NNW 15-23 kts 22.9°c 1007.3 hPa 63% 0.0mm
13/01:00am NNW 14-19 kts 23.2°c 1007.6 hPa 62% 0.0mm
13/12:30am NNW 14-18 kts 23.2°c 1007.8 hPa 64% 0.0mm
13/12:00am NNW 15-20 kts 23.3°c 1008.3 hPa 67% 0.0mm